Flag Weather past 2 weeks in Boa Vista, Roraima, Brazil

Now
88 °F

Partly sunny.


Feels Like: 93 °F
Forecast: 73 / 85 °F
Wind: 9 mph from East

Location: Boa Vista Aeropor-To

Current Time: Nov 21, 2014 at 12:49:49 PM

Latest Report: Nov 21, 2014 at 12:00 PM


Visibility: N/A

Pressure: 29.83 "Hg

Humidity: 55%

Dew point: 70 °F

Location of Boa VistaLocation

Historic Weather in Boa Vista — Graph

°F

Boa Vista temperature yesterday

Maximum temperature yesterday: 88 °F (at 1:00 PM)
Minimum temperature yesterday: 72 °F (at 6:00 AM)
Average temperature yesterday: 79 °F

Past Weeks' High & Low Weather Summary

 TemperatureHumidityPressure
High93 °F (Nov 8, 2:00 PM)100% (Nov 14, 9:00 AM)29.98 "Hg (Nov 14, 9:00 AM)
Low36 °F (Nov 16, 10:00 PM)39% (Nov 8, 3:00 PM)29.62 "Hg (Nov 13, 4:00 PM)
Average80 °F73%29.82 "Hg
* Reported Nov 6 11:00 AM — Nov 21 11:00 AM, Boa Vista, Weather by CustomWeather, © 2014

Note: Actual official high and low records may vary slightly from our data, if they occured in-between our weather recording intervals... More about our weather records

Advertising

Boa Vista weather history for previous 24 hours

 ConditionsComfort  
Time TempWeatherWind HumidityBarometerVisibility
11:00 AM
Nov 21
84 °FPartly sunny.8 mph62%29.86 "HgN/A
10:00 AM82 °FPartly sunny.6 mph66%29.89 "HgN/A
9:00 AM81 °FPartly sunny.12 mph70%29.86 "HgN/A
8:00 AM77 °FPassing clouds.3 mph83%29.86 "HgN/A
7:00 AM73 °FSunny.3 mph94%29.83 "Hg10 mi
6:00 AM72 °FSunny.5 mph100%29.80 "Hg10 mi
5:00 AM73 °FClear.2 mph94%29.77 "Hg10 mi
4:00 AM73 °FClear.2 mph89%29.77 "Hg10 mi
3:00 AM73 °FClear.2 mph89%29.77 "Hg10 mi
2:00 AM73 °FPassing clouds.2 mph94%29.77 "HgN/A
1:00 AM73 °FPassing clouds.1 mph89%29.80 "HgN/A
12:00 AM73 °FPassing clouds.3 mph89%29.83 "HgN/A
11:00 PM
Nov 20
73 °FPassing clouds.5 mph94%29.83 "HgN/A
10:00 PM75 °FPassing clouds.3 mph89%29.86 "HgN/A
9:00 PM77 °FPassing clouds.3 mph83%29.83 "HgN/A
8:00 PM77 °FPassing clouds.6 mph83%29.83 "HgN/A
7:00 PM79 °FPassing clouds.7 mph79%29.80 "HgN/A
6:00 PM81 °FPassing clouds.3 mph74%29.77 "HgN/A
5:00 PM81 °FBroken clouds.6 mph70%29.74 "HgN/A
4:00 PM82 °FScattered showers. Broken clouds.8 mph66%N/A6 mi
3:00 PM84 °FScattered showers. Broken clouds.13 mph62%29.74 "Hg6 mi
2:00 PM86 °FScattered showers. Scattered clouds.12 mph55%29.86 "HgN/A
1:00 PM88 °FBroken clouds.10 mph55%29.80 "HgN/A
12:00 PM86 °FBroken clouds.15 mph55%29.83 "HgN/A
Weather by CustomWeather, © 2014

See weather overviewHow to use our weather pages